Location: Julian California
(33.0790°N, 116.6010°W)
Time: 13:15:58
(UTC-07:00)

Cosmos 1470 - Pass Details

Date: 14 June 2018
Orbit: 521 x 545 km, 82.5° (Epoch: 18 June)

Event Time Altitude Azimuth Distance (km) Brightness Sun altitude
Rises 22:08:56 0° 341° (NNW) 2,653 7.5 -22.2°
Reaches altitude 10° 22:11:14 10° 331° (NNW) 1,763 6.5 -22.5°
Maximum altitude 22:14:39 31° 269° (W) 936 4.3 -23.0°
Enters shadow 22:15:48 26° 236° (SW) 1,059 4.2 -23.1°
